Port Clinton Carl R Keller Fi, OH

12:12 PM EDT on March 27, 2017 (GMT -0400)
Keller

Weather History for KPCW - December, 2013

Change the Weather History Date:

Sunday, December 22, 2013

  Actual Average (KTTF) Record (KTTF)
Temperature  
Mean Temperature 40 °F -  
Max Temperature 48 °F 34 °F 59 °F (1949)
Min Temperature 33 °F 19 °F -12 °F (1989)
Degree Days  
Heating Degree Days 24    
Moisture  
Dew Point 37 °F    
Average Humidity 93    
Maximum Humidity 100    
Minimum Humidity 81    
Precipitation  
Precipitation 0.00 in - - ()
Sea Level Pressure  
Sea Level Pressure 29.71 in    
Wind  
Wind Speed 13 mph (West)    
Max Wind Speed 26 mph    
Max Gust Speed 32 mph    
Visibility 9 miles    
Events Rain    
Averages and records for this station are not official NWS values.
T = Trace of Precipitation, MM = Missing Value Source: NWS Daily Summary

Daily Weather History Graph

Daily Weather History Graph

Search for Another Location

Airport or City:

Trip Planner

Search our weather history database for the weather conditions in past years. The results will help you decide how hot, cold, wet, or windy it might be!

Date:

Astronomy

Dec. 22, 2013 Rise Set
Actual Time 7:55 AM EST 5:05 PM EST
Civil Twilight 7:23 AM EST 5:36 PM EST
Nautical Twilight 6:48 AM EST 6:11 PM EST
Astronomical Twilight 6:14 AM EST 6:45 PM EST
Moon 10:20 PM EST (12/22) 10:47 AM EST (12/22)
Length of Visible Light 10h 13m
Length of Day
9h 10m
Waning Gibbous, 77% of the Moon is Illuminated
Dec 22
Waning Gibbous
Dec 25
Last Quarter
Jan 1
New
Jan 7
First Quarter
Jan 15
Full

Hourly Weather History & Observations

Time (EST) Temp. Windchill Dew Point Humidity Pressure Visibility Wind Dir Wind Speed Gust Speed Precip Events Conditions
12:02 AM 33.8 °F 21.6 °F 32.0 °F 93% 29.53 in 4.0 mi ENE 23.0 mph 32.2 mph N/A Rain Rain
12:33 AM 33.8 °F 25.3 °F 32.0 °F 93% 29.56 in 6.0 mi NE 11.5 mph - N/A Rain Rain
12:43 AM 33.8 °F 24.8 °F 32.0 °F 93% 29.58 in 5.0 mi NE 12.7 mph - N/A Rain Rain
1:13 AM 33.8 °F 23.9 °F 32.0 °F 93% 29.56 in 3.0 mi ENE 15.0 mph - N/A Rain Rain
1:33 AM 33.8 °F 27.0 °F 32.0 °F 93% 29.59 in 7.0 mi East 8.1 mph - N/A Rain Light Rain
1:53 AM 34.0 °F 26.0 °F 32.9 °F 96% 29.60 in 5.0 mi East 10.4 mph - N/A Rain Light Rain
2:13 AM 33.8 °F 23.9 °F 33.8 °F 100% 29.57 in 7.0 mi ESE 15.0 mph - N/A Rain Light Rain
2:34 AM 33.8 °F 23.2 °F 33.8 °F 100% 29.52 in 8.0 mi East 17.3 mph - N/A Rain Light Rain
2:53 AM 34.0 °F 26.6 °F 32.9 °F 96% 29.58 in 10.0 mi East 9.2 mph - N/A Rain Light Rain
3:10 AM 33.8 °F 24.3 °F 33.8 °F 100% 29.50 in 9.0 mi East 13.8 mph - N/A Rain Light Rain
3:33 AM 35.6 °F 28.0 °F 33.8 °F 93% 29.53 in 10.0 mi East 10.4 mph - N/A Rain Light Rain
3:53 AM 33.8 °F 29.6 °F 33.8 °F 100% 29.56 in 10.0 mi Variable 4.6 mph - N/A   Overcast
4:13 AM 33.8 °F 26.4 °F 33.8 °F 100% 29.55 in 10.0 mi NNE 9.2 mph - N/A   Overcast
4:24 AM 33.8 °F 26.4 °F 33.8 °F 100% 29.53 in 10.0 mi NE 9.2 mph - N/A   Overcast
4:46 AM 34.0 °F 24.6 °F 32.9 °F 96% 29.49 in 10.0 mi East 13.8 mph - N/A   Overcast
5:13 AM 33.8 °F 25.3 °F 33.8 °F 100% 29.48 in 10.0 mi ENE 11.5 mph - N/A   Overcast
5:28 AM 33.8 °F 26.4 °F 33.8 °F 100% 29.49 in 10.0 mi ENE 9.2 mph - N/A   Overcast
5:54 AM 33.8 °F 28.6 °F 33.8 °F 100% 29.50 in 10.0 mi East 5.8 mph - N/A   Overcast
6:13 AM 35.6 °F 30.7 °F 35.6 °F 100% 29.51 in 10.0 mi East 5.8 mph - N/A   Overcast
6:34 AM 37.4 °F 28.5 °F 35.6 °F 93% 29.52 in 7.0 mi WSW 15.0 mph 25.3 mph N/A Rain Light Rain
6:46 AM 37.4 °F 30.8 °F 37.4 °F 100% 29.53 in 6.0 mi NNW 9.2 mph - N/A Rain Light Rain
7:03 AM 35.6 °F 29.2 °F 33.8 °F 93% 29.55 in 6.0 mi North 8.1 mph - N/A Rain Light Rain
7:34 AM 35.6 °F 30.7 °F 35.6 °F 100% 29.55 in 8.0 mi NNW 5.8 mph - N/A Rain Light Rain
7:53 AM 36.9 °F - 36.0 °F 97% 29.57 in 9.0 mi Calm Calm - N/A Rain Light Rain
8:13 AM 35.6 °F 32.8 °F 35.6 °F 100% 29.59 in 10.0 mi West 3.5 mph - N/A   Overcast
8:34 AM 35.6 °F 31.7 °F 35.6 °F 100% 29.61 in 10.0 mi SW 4.6 mph - N/A   Overcast
8:53 AM 36.9 °F 31.4 °F 36.0 °F 97% 29.62 in 10.0 mi WSW 6.9 mph - N/A   Overcast
9:08 AM 37.4 °F 32.8 °F 35.6 °F 93% 29.62 in 10.0 mi SW 5.8 mph - N/A   Overcast
9:25 AM 39.2 °F 33.0 °F 37.4 °F 93% 29.63 in 10.0 mi SW 9.2 mph - N/A   Overcast
9:40 AM 39.2 °F 33.0 °F 39.2 °F 100% 29.64 in 10.0 mi WSW 9.2 mph - N/A   Mostly Cloudy
10:11 AM 44.6 °F 38.8 °F 42.8 °F 93% 29.64 in 10.0 mi WSW 11.5 mph - N/A   Overcast
10:26 AM 44.6 °F 37.8 °F 44.6 °F 100% 29.66 in 10.0 mi WSW 15.0 mph - N/A   Overcast
10:51 AM 46.4 °F 39.0 °F 44.6 °F 93% 29.67 in 10.0 mi West 19.6 mph - N/A   Overcast
11:14 AM 48.2 °F - 44.6 °F 87% 29.68 in 10.0 mi West 26.5 mph - N/A   Overcast
11:33 AM 46.4 °F 38.1 °F 44.6 °F 93% 29.69 in 10.0 mi West 24.2 mph - N/A   Overcast
11:53 AM 45.9 °F 37.8 °F 41.9 °F 86% 29.70 in 10.0 mi WSW 21.9 mph - N/A   Overcast
12:13 PM 46.4 °F 38.7 °F 42.8 °F 87% 29.70 in 10.0 mi WSW 20.7 mph - N/A   Overcast
12:26 PM 46.4 °F 38.3 °F 42.8 °F 87% 29.71 in 10.0 mi WSW 23.0 mph - N/A   Overcast
4:03 PM 44.6 °F 38.1 °F 39.2 °F 81% 29.82 in 10.0 mi West 13.8 mph - N/A   Overcast
4:14 PM 44.6 °F 38.8 °F 39.2 °F 81% 29.83 in 10.0 mi WSW 11.5 mph - N/A   Overcast
4:34 PM 42.8 °F 35.8 °F 39.2 °F 87% 29.84 in 10.0 mi West 13.8 mph - N/A   Overcast
4:53 PM 43.0 °F 36.0 °F 38.8 °F 85% 29.86 in 10.0 mi WSW 13.8 mph - N/A   Overcast
5:10 PM 42.8 °F 37.0 °F 39.2 °F 87% 29.87 in 9.0 mi West 10.4 mph - N/A   Overcast
5:34 PM 42.8 °F 35.8 °F 39.2 °F 87% 29.88 in 10.0 mi West 13.8 mph - N/A   Overcast
5:53 PM 41.0 °F 34.7 °F 38.8 °F 92% 29.87 in 8.0 mi West 10.4 mph - N/A   Overcast
6:13 PM 41.0 °F 34.3 °F 39.2 °F 93% 29.88 in 10.0 mi West 11.5 mph - N/A   Overcast
6:33 PM 41.0 °F 34.3 °F 37.4 °F 87% 29.90 in 10.0 mi West 11.5 mph - N/A   Overcast
6:40 PM 39.2 °F 32.0 °F 37.4 °F 93% 29.90 in 10.0 mi West 11.5 mph - N/A   Overcast
7:05 PM 41.0 °F 34.7 °F 37.4 °F 87% 29.91 in 9.0 mi West 10.4 mph - N/A   Overcast
7:33 PM 39.2 °F 32.5 °F 37.4 °F 93% 29.93 in 3.0 mi West 10.4 mph - N/A   Overcast
7:45 PM 39.2 °F 32.5 °F 37.4 °F 93% 29.92 in 2.5 mi West 10.4 mph - N/A   Overcast
8:13 PM 39.2 °F 34.2 °F 37.4 °F 93% 29.93 in 6.0 mi West 6.9 mph - N/A   Overcast
8:33 PM 39.2 °F 33.0 °F 37.4 °F 93% 29.93 in 5.0 mi WNW 9.2 mph - N/A   Overcast
8:47 PM 38.8 °F 31.6 °F 36.9 °F 93% 29.94 in 5.0 mi West 11.5 mph - N/A   Overcast
9:14 PM 39.2 °F 33.0 °F 35.6 °F 87% 29.93 in 10.0 mi WSW 9.2 mph - N/A   Mostly Cloudy
9:33 PM 37.4 °F 29.3 °F 35.6 °F 93% 29.95 in 10.0 mi WSW 12.7 mph - N/A   Overcast
9:53 PM 37.9 °F 31.5 °F 34.9 °F 89% 29.95 in 10.0 mi WSW 9.2 mph - N/A   Overcast
10:14 PM 37.4 °F 30.3 °F 35.6 °F 93% 29.95 in 10.0 mi WSW 10.4 mph - N/A   Overcast
10:34 PM 37.4 °F 30.3 °F 35.6 °F 93% 29.94 in 10.0 mi WSW 10.4 mph - N/A   Overcast
10:53 PM 37.9 °F 30.9 °F 34.9 °F 89% 29.95 in 10.0 mi WSW 10.4 mph - N/A   Overcast
11:13 PM 37.4 °F 31.4 °F 33.8 °F 87% 29.96 in 10.0 mi WSW 8.1 mph - N/A   Overcast
11:24 PM 37.4 °F 29.8 °F 35.6 °F 93% 29.96 in 10.0 mi WSW 11.5 mph - N/A   Overcast
11:53 PM 37.9 °F 30.9 °F 34.0 °F 86% 29.97 in 10.0 mi WSW 10.4 mph - N/A   Overcast